Location: ????????
(55.0559°N, 39.1270°E)
Time: 00:47:02
(UTC+00:00)

USA 238 DEB - Pass Details

Date: 15 November 2025
Orbit: 886 x 1325 km, 63.4° (Epoch: 24 November)

Event Time Altitude Azimuth Distance (km) Brightness Sun altitude
Exits shadow 02:03:29 33° 319° (NW) 1,726 4.4 -24.3°
Maximum altitude 02:05:49 43° 1° (N) 1,513 4.4 -24.0°
Drops below altitude 10° 02:12:53 10° 72° (ENE) 3,131 7.1 -22.9°
Sets 02:15:57 0° 79° (E) 4,157 8.2 -22.5°
